Change the Weather History Date:

Wednesday, May 2, 2012

  Actual Average Record
Temperature  
Mean Temperature 72 °F 73 °F  
Max Temperature 80 °F 80 °F 85 °F (2005)
Min Temperature 63 °F 66 °F 61 °F (1979)
Degree Days  
Heating Degree Days 0 0  
Month to date heating degree days 0 0  
Since 1 July heating degree days 0 0  
Cooling Degree Days 7 8  
Month to date cooling degree days 15 16  
Year to date cooling degree days 850 813  
Growing Degree Days 21 (Base 50)    
Moisture  
Dew Point 62 °F    
Average Humidity 74    
Maximum Humidity 93    
Minimum Humidity 54    
Precipitation  
Precipitation 0.16 in 0.32 in 3.43 in (1965)
Month to date precipitation 0.34 0.65  
Year to date precipitation 38.16 44.44  
Snow  
Snow 0.00 in - - ()
Month to date snowfall 0.0  
Since 1 July snowfall 0.0  
Snow Depth 0.00 in    
Sea Level Pressure  
Sea Level Pressure 30.08 in    
Wind  
Wind Speed 6 mph (SSW)    
Max Wind Speed 14 mph    
Max Gust Speed 18 mph    
Visibility 10 miles    
Events Rain    
T = Trace of Precipitation, MM = Missing Value Source: NWS Daily Summary

Daily Weather History Graph

Daily Weather History Graph

Search for Another Location

Airport or City:

Trip Planner

Search our weather history database for the weather conditions in past years. The results will help you decide how hot, cold, wet, or windy it might be!

Date:

Astronomy

May. 02, 2012 Rise Set
Actual Time 5:50 AM HST 6:44 PM HST
Civil Twilight 5:27 AM HST 7:07 PM HST
Nautical Twilight 5:00 AM HST 7:34 PM HST
Astronomical Twilight 4:32 AM HST 8:02 PM HST
Moon 3:33 PM HST (5/2) 2:57 AM HST (5/2)
Length of Visible Light 13h 39m
Length of Day
12h 53m
Waxing Gibbous, 85% of the Moon is Illuminated
May 2
Waxing Gibbous
May 5
Full
May 12
Last Quarter
May 20
New
May 28
First Quarter

Hourly Weather History & Observations

Time (HST) Temp. Dew Point Humidity Pressure Visibility Wind Dir Wind Speed Gust Speed Precip Events Conditions
12:53 AM 64.9 °F 62.1 °F 90% 30.09 in 10.0 mi Calm Calm - N/A   Clear
1:53 AM 64.9 °F 60.1 °F 84% 30.07 in 10.0 mi WSW 8.1 mph - N/A   Mostly Cloudy
2:27 AM 64.4 °F 60.8 °F 88% 30.08 in 2.5 mi SSE 4.6 mph - 0.02 in Rain Heavy Rain
2:34 AM 64.4 °F 60.8 °F 88% 30.07 in 2.5 mi WSW 6.9 mph - 0.06 in Rain Heavy Rain
2:42 AM 64.4 °F 62.6 °F 94% 30.07 in 7.0 mi WSW 9.2 mph - 0.08 in Rain Light Rain
2:53 AM 64.9 °F 62.1 °F 90% 30.07 in 10.0 mi WSW 9.2 mph - 0.08 in   Overcast
3:53 AM 66.0 °F 62.1 °F 87% 30.07 in 10.0 mi Calm Calm - N/A   Overcast
4:53 AM 64.0 °F 60.1 °F 87% 30.08 in 10.0 mi SW 4.6 mph - N/A   Clear
5:53 AM 64.0 °F 60.1 °F 87% 30.09 in 10.0 mi SW 4.6 mph - N/A   Clear
6:53 AM 66.0 °F 62.1 °F 87% 30.10 in 10.0 mi Calm Calm - N/A   Overcast
7:53 AM 66.9 °F 63.0 °F 87% 30.12 in 10.0 mi West 5.8 mph - 0.06 in Rain Light Rain
8:53 AM 71.1 °F 64.9 °F 81% 30.12 in 10.0 mi West 6.9 mph - 0.02 in   Mostly Cloudy
9:53 AM 75.9 °F 63.0 °F 64% 30.12 in 10.0 mi Calm Calm - N/A   Partly Cloudy
10:53 AM 79.0 °F 64.0 °F 60% 30.10 in 10.0 mi NE 5.8 mph - N/A   Mostly Cloudy
11:53 AM 79.0 °F 63.0 °F 58% 30.09 in 10.0 mi ESE 12.7 mph - N/A   Mostly Cloudy
12:53 PM 77.0 °F 61.0 °F 58% 30.06 in 10.0 mi ENE 12.7 mph - N/A   Mostly Cloudy
1:53 PM 79.0 °F 60.1 °F 52% 30.04 in 10.0 mi East 13.8 mph 17.3 mph N/A   Scattered Clouds
2:53 PM 78.1 °F 60.1 °F 54% 30.02 in 10.0 mi East 11.5 mph - N/A   Overcast
3:53 PM 77.0 °F 62.1 °F 60% 30.02 in 10.0 mi East 10.4 mph - N/A   Overcast
4:53 PM 75.0 °F 61.0 °F 62% 30.02 in 10.0 mi East 11.5 mph - N/A   Mostly Cloudy
5:53 PM 73.9 °F 63.0 °F 68% 30.03 in 10.0 mi East 6.9 mph - N/A   Mostly Cloudy
6:53 PM 71.1 °F 62.1 °F 73% 30.05 in 10.0 mi Calm Calm - N/A   Partly Cloudy
7:53 PM 70.0 °F 63.0 °F 78% 30.07 in 10.0 mi Calm Calm - N/A   Mostly Cloudy
8:51 PM 69.8 °F 64.4 °F 83% 30.10 in 10.0 mi WSW 6.9 mph - N/A   Overcast
8:53 PM 70.0 °F 64.0 °F 81% 30.09 in 10.0 mi SW 5.8 mph - N/A   Overcast
9:16 PM 71.6 °F 62.6 °F 73% 30.10 in 10.0 mi WSW 4.6 mph - N/A   Overcast
9:53 PM 70.0 °F 63.0 °F 78% 30.11 in 10.0 mi SSW 3.5 mph - N/A   Mostly Cloudy
10:53 PM 69.1 °F 63.0 °F 81% 30.11 in 10.0 mi WSW 5.8 mph - N/A   Overcast
11:53 PM 68.0 °F 62.1 °F 81% 30.09 in 10.0 mi WSW 3.5 mph - N/A   Mostly Cloudy